This is the latest recevied weather packets stored in our database for station/object OK2ZI. If no packets are shown the sender has not sent any weather packets the latest 10 day(s).
| Time | Temp. | Humidity | Pressure | Rain* | Wind** | Luminosity | Snow |
|---|---|---|---|---|---|---|---|
| 1777976647 | 22.22° C | 41% | 1006 hPa | 0 mm | - | - | - |
| 1777976527 | 21.67° C | 44% | 1006 hPa | 0 mm | - | - | - |
| 1777976287 | 22.78° C | 43% | 1006 hPa | 0 mm | - | - | - |
| 1777974967 | 21.11° C | 44% | 1006 hPa | 0 mm | - | - | - |
| 1777974847 | 21.67° C | 46% | 1006 hPa | 0 mm | - | - | - |
| 1777974127 | 20° C | 44% | 1006 hPa | 0 mm | - | - | - |
| 1777973768 | 20.56° C | 44% | 1006 hPa | 0 mm | - | - | - |
| 1777973647 | 21.11° C | 43% | 1006 hPa | 0 mm | - | - | - |
| 1777973166 | 21.11° C | 44% | 1006 hPa | 0 mm | - | - | - |
| 1777972447 | 20.56° C | 45% | 1006 hPa | 0 mm | - | - | - |
| 1777971838 | 18.89° C | 47% | 1006 hPa | 0 mm | - | - | - |
| 1777970168 | 18.33° C | 48% | 1006 hPa | 0 mm | - | - | - |
| 1777969815 | 18.89° C | 48% | 1007 hPa | 0 mm | - | - | - |
| 1777969094 | 18.89° C | 46% | 1007 hPa | 0 mm | - | - | - |
| 1777968727 | 18.33° C | 47% | 1007 hPa | 0 mm | - | - | - |
| 1777968136 | 17.22° C | 50% | 1007 hPa | 0 mm | - | - | - |
| 1777968024 | 17.22° C | 49% | 1007 hPa | 0 mm | - | - | - |
| 1777967766 | 16.67° C | 50% | 1007 hPa | 0 mm | - | - | - |
| 1777967287 | 16.67° C | 50% | 1007 hPa | 0 mm | - | - | - |
| 1777967167 | 16.67° C | 50% | 1007 hPa | 0 mm | - | - | - |
| 1777966579 | 16.67° C | 49% | 1007 hPa | 0 mm | - | - | - |
| 1777966327 | 17.22° C | 48% | 1007 hPa | 0 mm | - | - | - |
| 1777965487 | 17.78° C | 46% | 1006 hPa | 0 mm | - | - | - |
| 1777964167 | 17.22° C | 47% | 1007 hPa | 0 mm | - | - | - |
| 1777963927 | 17.22° C | 47% | 1007 hPa | 0 mm | - | - | - |
* Rain latest hour (hover to see other rain measurements)
** Current wind speed in m/s (hover to see current wind gust speed)